Weather History for Point Mugu, CA

Change the Weather History Date:

Friday, January 4, 2013

  Actual Average Record
Temperature  
Mean Temperature 56 °F -  
Max Temperature 66 °F 61 °F 84 °F (2012)
Min Temperature 42 °F 44 °F 41 °F (2004)
Degree Days  
Heating Degree Days 10    
Growing Degree Days 6 (Base 50)    
Moisture  
Dew Point 36 °F    
Average Humidity 51    
Maximum Humidity 83    
Minimum Humidity 17    
Precipitation  
Precipitation 0.00 in - - ()
Sea Level Pressure  
Sea Level Pressure 30.22 in    
Wind  
Wind Speed 10 mph (ENE)    
Max Wind Speed 15 mph    
Max Gust Speed 18 mph    
Visibility 7 miles    
Events      
Averages and records for this station are not official NWS values.
T = Trace of Precipitation, MM = Missing Value Source: NWS Daily Summary

Daily Weather History Graph

Daily Weather History Graph

Search for Another Location

Airport:

Trip Planner

Search our weather history database for the weather conditions in past years. The results will help you decide how hot, cold, wet, or windy it might be!

Date:

Astronomy

Jan. 04, 2013 Rise Set
Actual Time 7:02 AM PST 5:00 PM PST
Civil Twilight 6:35 AM PST 5:28 PM PST
Nautical Twilight 6:04 AM PST 5:59 PM PST
Astronomical Twilight 5:33 AM PST 6:29 PM PST
Moon No Moon Rise 11:09 AM PST (1/4)
Length of Visible Light 10h 53m
Length of Day
9h 57m
Waning Gibbous, 54% of the Moon is Illuminated
Jan 4
Waning Gibbous
Jan 4
Last Quarter
Jan 11
New
Jan 18
First Quarter
Jan 26
Full

Hourly Weather History & Observations

Time (PST) Temp. Windchill Dew Point Humidity Pressure Visibility Wind Dir Wind Speed Gust Speed Precip Events Conditions
12:54 AM 55.9 °F - 50.0 °F 80% 30.18 in - ENE 10.4 mph 18.4 mph N/A   Clear
1:54 AM 55.9 °F - 50.0 °F 80% 30.18 in - NE 10.4 mph - N/A   Clear
2:54 AM 55.9 °F - 50.0 °F 80% 30.18 in - ENE 15.0 mph - N/A   Clear
3:54 AM 55.0 °F - 50.0 °F 83% 30.19 in - ENE 13.8 mph - N/A   Clear
4:54 AM 55.9 °F - 50.0 °F 80% 30.19 in - ENE 12.7 mph - N/A   Clear
5:54 AM 54.0 °F - 17.1 °F 23% 30.21 in 7.0 mi ENE 11.5 mph - N/A   Clear
6:54 AM 54.0 °F - 13.3 °F 20% 30.22 in 7.0 mi ENE 12.7 mph - N/A   Clear
7:54 AM 55.9 °F - 13.3 °F 19% 30.25 in 7.0 mi ENE 9.2 mph - N/A   Clear
8:54 AM 60.1 °F - 16.3 °F 18% 30.26 in 7.0 mi ENE 12.7 mph - N/A   Clear
9:54 AM 63.0 °F - 19.0 °F 18% 30.27 in 7.0 mi NE 8.1 mph - N/A   Clear
10:54 AM 66.9 °F - 20.5 °F 17% 30.26 in 7.0 mi SSE 6.9 mph - N/A   Clear
11:54 AM 64.9 °F - 32.7 °F 30% 30.23 in 7.0 mi South 9.2 mph - N/A   Clear
12:54 PM 64.9 °F - 32.9 °F 30% 30.20 in 7.0 mi South 10.4 mph - N/A   Partly Cloudy
1:54 PM 63.0 °F - 41.7 °F 46% 30.19 in 7.0 mi South 11.5 mph - N/A   Partly Cloudy
2:54 PM 64.6 °F - 43.2 °F 46% 30.18 in 7.0 mi South 13.8 mph - N/A   Clear
3:54 PM 64.9 °F - 41.7 °F 43% 30.19 in 7.0 mi SSE 11.5 mph - N/A   Clear
4:54 PM 65.3 °F - 47.1 °F 52% 30.19 in 7.0 mi South 6.9 mph - N/A   Clear
5:54 PM 60.3 °F - 48.7 °F 66% 30.21 in 7.0 mi Calm Calm - N/A   Clear
6:54 PM 57.9 °F - 44.2 °F 60% 30.22 in 7.0 mi ENE 3.5 mph - N/A   Clear
7:54 PM 53.1 °F - 36.3 °F 53% 30.24 in 7.0 mi NE 4.6 mph - N/A   Clear
8:54 PM 50.2 °F - 37.8 °F 62% 30.25 in 7.0 mi NNE 5.8 mph - N/A   Clear
9:54 PM 46.6 °F - 35.2 °F 65% 30.25 in 7.0 mi North 5.8 mph - N/A   Clear
10:54 PM 45.9 °F 42.9 °F 35.1 °F 66% 30.26 in 7.0 mi North 5.8 mph - N/A   Clear
11:54 PM 42.1 °F 39.2 °F 35.1 °F 76% 30.24 in - North 4.6 mph - N/A   Clear